Temp
62 62 61 61 61 61 61 61 61 61 61 62 62 62 62 62 62 61 66 77 77 76 74 81 78 79 76 71 73 71 58 51 56 62 66 73 69 76 79 75 80 81 81 83 85
61 61 61 61 61 60 60 60 60 61 61 62 62 62 62 62 61 67 78 76 76 75 80 76 73 76 69 69 71 66 55 59 70 74 74 73 70 76 77 76 76 79 83 85 85
60 61 60 60 61 60 60 60 60 61 61 61 62 62 62 61 63 74 78 78 76 78 79 79 76 73 64 66 68 63 62 68 76 77 77 77 78 78 75 70 76 76 79 82 83
60 60 60 60 60 60 60 60 60 61 61 60 61 62 62 63 60 79 76 77 76 81 79 76 72 63 62 64 67 62 73 73 78 78 77 77 81 77 76 76 82 82 83 83 81
59 60 60 59 60 60 59 59 60 60 60 60 61 62 62 62 68 82 77 77 80 80 77 73 67 64 61 66 69 69 74 76 78 77 75 81 79 77 75 81 84 84 83 81 77
58 59 59 59 59 59 59 59 59 58 59 60 62 63 64 60 82 81 81 79 82 77 79 75 73 74 70 68 66 73 74 76 77 72 73 76 75 76 78 83 82 82 80 78 76
58 58 58 58 59 59 59 59 58 58 60 62 63 68 66 68 84 79 81 78 80 83 79 80 80 73 71 71 70 74 69 72 73 72 71 79 70 72 80 82 80 80 80 78 77
58 58 58 58 58 59 59 59 58 60 61 64 65 66 62 80 79 79 77 82 85 85 83 84 82 73 69 71 73 68 63 57 69 74 74 75 62 73 80 79 77 78 79 78 76
58 57 57 58 58 59 58 58 59 62 64 65 62 62 64 81 80 85 84 82 85 85 84 93 78 70 73 62 58 60 55 58 67 73 76 71 64 77 75 78 74 76 75 78 75
57 57 57 57 58 58 57 58 61 63 65 72 76 63 71 77 85 86 84 87 83 81 79 75 67 63 60 57 50 54 56 60 60 69 66 63 67 73 75 76 75 74 75 77 75
57 57 56 57 57 57 54 60 65 63 65 67 69 69 78 85 89 85 87 85 81 75 65 69 61 56 61 63 66 63 61 62 67 73 69 67 67 71 72 73 74 74 74 75 75
57 56 56 56 56 57 52 63 69 72 62 74 75 76 82 83 75 83 87 76 71 64 66 63 57 67 70 70 67 65 63 62 67 72 66 63 65 70 69 73 74 74 74 75 74
56 56 56 56 56 58 61 69 76 72 60 68 75 75 76 79 75 77 82 76 70 65 64 60 67 74 72 69 67 64 61 61 63 66 67 63 60 63 71 71 72 76 79 77 75
55 55 55 55 59 54 63 73 74 70 50 61 69 74 77 79 72 86 85 78 69 66 65 63 73 72 69 68 69 58 69 69 67 60 53 62 49 58 64 67 69 74 70 74 74
55 55 55 55 47 53 68 71 73 68 41 71 72 83 77 73 75 77 85 77 68 69 66 63 67 67 66 69 73 66 70 66 65 57 52 56 50 56 59 64 66 69 74 75 76
55 55 55 53 47 56 64 67 66 51 42 66 76 72 70 73 75 77 78 78 77 69 66 66 73 72 70 74 73 73 66 60 56 52 45 52 51 49 56 60 64 65 67 71 68
54 55 52 57 53 60 61 61 48 41 67 66 68 71 69 68 71 72 69 64 61 55 54 63 67 71 74 67 68 63 52 42 43 42 43 55 52 54 62 67 66 63 63 63 64
53 52 49 55 53 57 58 53 39 57 59 71 72 71 66 69 68 69 65 61 63 62 54 53 52 65 73 68 63 60 55 41 38 37 45 55 48 56 65 69 68 67 65 66 65
52 44 48 55 59 58 53 41 45 55 68 65 67 63 63 68 67 66 62 63 66 65 56 52 55 70 74 72 70 60 54 59 49 46 43 48 55 62 65 63 65 66 64 61 61
44 41 48 61 64 57 48 44 52 66 69 67 56 63 56 61 61 59 61 67 69 70 66 60 52 69 72 71 68 65 66 51 45 38 36 45 48 48 54 58 61 61 59 61 62
41 46 60 65 65 53 42 45 58 69 69 63 61 60 60 59 60 58 62 68 71 71 68 63 56 61 64 60 58 61 54 52 49 44 38 35 42 53 51 54 55 61 60 60 60
40 43 63 66 51 47 44 55 60 65 68 66 65 63 60 61 59 59 61 65 72 69 62 61 54 51 58 67 69 60 54 49 41 42 42 40 40 59 55 57 61 60 63 61 62
35 43 62 63 44 44 52 60 64 64 64 64 63 65 63 58 53 60 63 71 71 66 62 59 50 46 51 58 61 56 56 55 49 46 42 36 40 57 57 58 61 57 61 59 57
37 39 50 54 51 49 48 53 56 68 66 68 65 65 59 56 58 57 63 70 70 67 64 62 52 48 43 50 58 51 55 55 50 42 44 44 51 52 54 58 57 56 55 54 54
37 40 48 44 49 50 50 54 55 57 64 65 59 62 57 50 54 54 61 64 68 64 63 57 50 54 54 58 61 58 57 55 51 51 46 51 50 53 53 55 57 56 55 55 53
35 40 45 44 49 48 49 50 54 58 60 58 56 63 59 52 54 51 57 55 54 59 55 53 47 50 49 58 57 54 58 57 55 54 51 51 51 56 54 55 56 56 56 55 54
44 45 42 43 46 46 47 53 56 58 62 64 63 57 54 58 61 60 57 58 56 54 53 51 48 44 41 52 52 46 54 57 55 56 55 48 53 53 52 56 55 56 58 57 55
MSLP
1020.00 1019.47 1019.06 1018.60 1018.19 1017.77 1017.32 1016.77 1016.32 1015.95 1015.61 1015.32 1015.08 1014.96 1014.83 1014.58 1014.09 1014.12 1013.19 1010.69 1010.33 1010.19 1010.62 1010.42 1010.50 1010.44 1010.73 1010.77 1010.62 1010.81 1011.88 1012.35 1011.77 1011.08 1009.90 1010.30 1010.41 1010.79 1010.75 1010.65 1010.32 1010.16 1010.15 1010.91 1011.70
1020.15 1019.64 1019.08 1018.60 1018.15 1017.71 1017.26 1016.76 1016.23 1015.81 1015.48 1015.19 1014.96 1014.81 1014.70 1014.59 1014.24 1012.83 1009.71 1009.60 1009.78 1009.94 1010.56 1010.51 1010.59 1010.68 1011.00 1010.60 1010.41 1010.73 1011.39 1011.01 1010.20 1009.55 1010.03 1010.82 1010.60 1010.51 1010.60 1010.50 1010.48 1010.21 1010.28 1010.86 1011.53
1020.18 1019.61 1019.10 1018.57 1018.08 1017.64 1017.21 1016.71 1016.17 1015.72 1015.38 1015.10 1014.83 1014.62 1014.51 1014.53 1013.80 1010.30 1008.41 1008.86 1009.45 1009.79 1009.95 1010.19 1010.36 1010.77 1010.85 1010.55 1010.23 1010.37 1010.51 1009.71 1008.76 1009.29 1009.12 1009.50 1009.22 1010.16 1010.18 1010.47 1009.52 1009.95 1010.38 1010.99 1011.81
1020.27 1019.68 1019.11 1018.55 1017.96 1017.41 1017.00 1016.51 1016.00 1015.49 1015.13 1014.96 1014.71 1014.47 1014.33 1014.30 1012.40 1008.90 1008.23 1008.57 1009.23 1009.64 1009.90 1009.90 1010.38 1010.62 1010.52 1010.30 1009.96 1010.12 1009.22 1009.05 1008.15 1007.74 1008.37 1008.65 1009.67 1009.81 1009.17 1009.30 1009.35 1009.44 1009.86 1010.78 1011.90
1020.32 1019.75 1019.08 1018.46 1017.91 1017.26 1016.66 1016.18 1015.69 1015.21 1014.86 1014.67 1014.51 1014.31 1014.29 1013.53 1011.00 1008.49 1008.71 1008.92 1009.38 1009.64 1009.79 1009.99 1010.16 1010.34 1010.28 1009.73 1009.47 1009.36 1008.52 1007.91 1007.24 1007.10 1006.90 1006.97 1008.30 1008.80 1009.48 1009.43 1009.50 1009.63 1010.18 1010.94 1011.93
1020.27 1019.69 1019.01 1018.35 1017.76 1017.05 1016.33 1015.75 1015.34 1014.89 1014.50 1014.28 1014.22 1014.27 1013.90 1012.28 1008.53 1008.34 1008.69 1009.23 1009.15 1009.46 1009.46 1009.79 1009.72 1009.61 1009.90 1009.49 1009.34 1008.45 1008.03 1007.38 1006.74 1006.42 1006.47 1007.04 1008.04 1008.32 1009.69 1009.48 1009.52 1009.84 1010.28 1011.13 1011.68
1020.21 1019.53 1018.82 1018.17 1017.52 1016.76 1015.93 1015.21 1014.82 1014.44 1014.09 1013.90 1013.98 1014.00 1013.23 1010.16 1008.45 1008.45 1008.79 1008.85 1008.69 1008.85 1009.22 1009.16 1009.12 1009.43 1009.27 1009.20 1008.86 1008.40 1008.13 1007.18 1006.66 1006.50 1006.64 1007.24 1008.76 1008.92 1009.09 1009.25 1009.52 1009.92 1010.34 1011.04 1011.25
1020.20 1019.41 1018.65 1017.89 1017.17 1016.46 1015.57 1014.73 1014.21 1013.85 1013.67 1013.60 1013.83 1013.67 1011.95 1008.60 1008.53 1008.96 1008.96 1008.75 1008.44 1008.44 1008.67 1008.44 1008.43 1008.61 1008.99 1009.17 1008.99 1009.02 1008.70 1008.35 1007.27 1006.88 1006.65 1006.91 1008.67 1009.22 1009.06 1009.15 1009.70 1009.97 1010.37 1011.10 1011.47
1020.21 1019.39 1018.52 1017.72 1016.87 1016.02 1015.15 1014.21 1013.59 1013.39 1013.41 1013.54 1013.77 1013.13 1010.74 1008.26 1008.37 1007.83 1008.25 1008.40 1008.11 1008.27 1008.23 1007.98 1008.18 1008.98 1009.26 1010.01 1010.41 1009.96 1009.49 1008.77 1007.89 1007.03 1007.10 1007.32 1008.26 1008.64 1008.95 1009.19 1009.64 1010.04 1010.50 1011.00 1011.45
1020.17 1019.35 1018.43 1017.49 1016.60 1015.83 1014.62 1013.46 1013.11 1013.09 1013.43 1013.32 1012.82 1012.67 1009.64 1007.66 1006.89 1006.99 1007.51 1007.88 1008.09 1008.20 1008.43 1008.46 1009.20 1009.82 1010.47 1010.83 1011.17 1010.63 1010.20 1009.46 1008.79 1007.91 1008.05 1008.04 1007.85 1008.49 1008.87 1009.09 1009.25 1009.64 1010.05 1010.52 1010.76
1020.10 1019.31 1018.26 1017.25 1016.22 1015.56 1014.49 1013.28 1013.38 1013.13 1012.58 1011.71 1011.04 1010.05 1008.42 1007.36 1006.49 1006.75 1007.15 1007.74 1007.98 1008.43 1009.04 1009.12 1010.04 1010.49 1010.30 1010.46 1010.24 1010.30 1010.16 1009.72 1008.68 1007.75 1008.19 1007.81 1007.95 1008.12 1008.59 1008.99 1009.13 1009.31 1009.56 1009.84 1009.84
1020.18 1019.27 1018.17 1016.97 1015.71 1015.07 1014.81 1013.90 1012.49 1011.86 1011.08 1010.11 1009.54 1009.03 1007.77 1007.85 1007.72 1006.63 1006.63 1007.74 1008.18 1008.89 1009.28 1009.90 1009.82 1009.62 1009.74 1009.80 1010.03 1009.92 1009.86 1009.39 1008.51 1007.79 1007.86 1007.73 1008.12 1007.92 1008.28 1008.22 1008.50 1008.67 1008.91 1008.90 1009.64
1020.29 1019.36 1018.32 1016.80 1015.09 1014.53 1014.43 1012.80 1011.85 1010.83 1010.91 1008.86 1007.76 1007.46 1006.95 1007.12 1007.06 1006.46 1006.56 1007.33 1008.19 1009.00 1009.46 1009.94 1009.04 1008.98 1009.36 1009.15 1009.47 1009.33 1009.26 1008.83 1008.85 1008.20 1007.82 1008.26 1008.81 1008.51 1008.12 1008.03 1008.04 1008.14 1007.79 1008.19 1008.53
1020.21 1019.47 1018.61 1017.18 1015.01 1015.45 1013.67 1012.11 1011.49 1011.23 1011.18 1008.25 1006.78 1005.60 1005.90 1006.41 1006.46 1005.68 1005.92 1007.09 1008.06 1008.65 1009.32 1009.49 1008.40 1008.57 1008.49 1008.45 1008.26 1008.33 1008.21 1008.62 1008.67 1009.19 1009.51 1009.28 1010.23 1009.36 1008.84 1008.61 1008.63 1008.49 1008.26 1008.08 1008.18
1020.03 1019.37 1018.79 1018.53 1017.65 1016.08 1013.21 1012.24 1011.66 1011.42 1010.68 1006.44 1005.33 1003.98 1004.52 1005.93 1005.55 1005.23 1005.24 1006.42 1007.52 1008.29 1009.13 1008.66 1008.10 1008.01 1007.73 1007.27 1006.98 1007.56 1007.81 1008.69 1009.30 1010.28 1010.71 1010.92 1011.05 1009.90 1009.29 1008.85 1008.30 1007.63 1007.63 1007.39 1007.46
1019.62 1019.11 1018.79 1017.92 1017.74 1014.64 1013.50 1012.71 1012.17 1012.20 1009.25 1005.80 1004.43 1004.63 1005.29 1005.72 1005.50 1005.26 1005.63 1006.30 1006.95 1008.08 1008.60 1008.54 1007.62 1007.68 1006.88 1006.62 1006.56 1007.09 1008.47 1009.77 1010.72 1011.61 1012.53 1011.76 1011.63 1011.12 1009.92 1009.18 1008.81 1008.34 1007.74 1007.85 1008.99
1019.16 1018.39 1018.47 1017.69 1015.51 1013.77 1013.80 1013.45 1013.48 1011.62 1008.08 1005.95 1004.89 1004.75 1005.01 1005.43 1005.78 1005.84 1006.36 1007.04 1007.73 1008.54 1009.01 1008.66 1007.72 1007.06 1006.72 1006.86 1006.84 1007.99 1010.03 1011.70 1012.97 1013.63 1013.63 1012.16 1011.52 1010.80 1009.77 1009.31 1009.15 1009.62 1010.00 1010.62 1010.68
1018.49 1017.42 1016.11 1015.23 1014.20 1014.61 1014.31 1014.35 1013.32 1010.29 1008.40 1006.32 1005.63 1004.89 1005.13 1005.27 1005.71 1005.95 1006.56 1007.28 1007.72 1008.10 1009.19 1009.00 1008.11 1006.83 1006.42 1006.65 1007.19 1008.34 1010.11 1012.00 1013.30 1014.54 1014.09 1012.74 1011.91 1010.97 1010.64 1010.99 1010.51 1010.44 1010.96 1011.56 1012.71
1017.89 1016.54 1015.68 1012.86 1013.49 1014.49 1014.75 1014.61 1012.43 1010.24 1008.29 1007.26 1005.64 1005.17 1005.45 1005.38 1005.47 1005.86 1006.29 1006.83 1007.09 1007.52 1008.53 1008.71 1008.00 1006.74 1006.27 1006.30 1006.87 1008.17 1009.69 1010.76 1012.64 1014.19 1014.76 1013.66 1012.40 1011.47 1011.19 1012.66 1012.11 1011.77 1011.76 1012.83 1013.60
1018.55 1017.26 1014.63 1011.69 1012.70 1013.90 1014.54 1013.67 1011.64 1009.63 1008.50 1007.72 1007.04 1006.05 1006.09 1006.28 1006.14 1006.35 1005.99 1005.81 1006.10 1006.38 1006.81 1007.85 1008.32 1007.02 1006.52 1006.22 1006.47 1007.17 1008.80 1011.19 1013.43 1015.13 1015.69 1014.76 1013.93 1013.97 1013.93 1014.25 1014.15 1014.33 1014.59 1014.22 1014.74
1018.58 1017.04 1011.96 1011.38 1012.07 1013.70 1014.26 1012.99 1010.84 1009.21 1008.64 1007.90 1007.05 1006.62 1006.58 1006.80 1006.90 1006.58 1005.80 1005.65 1005.22 1005.60 1006.36 1007.42 1008.33 1007.56 1007.27 1007.14 1007.28 1008.11 1009.50 1011.64 1013.54 1015.07 1015.93 1015.96 1015.65 1015.22 1015.18 1014.92 1014.99 1014.64 1015.35 1015.83 1016.33
1018.81 1016.73 1011.64 1011.14 1012.64 1013.36 1013.39 1011.94 1010.61 1009.17 1008.42 1008.13 1006.83 1006.46 1006.64 1006.84 1006.96 1006.68 1006.32 1005.70 1005.24 1005.54 1006.96 1007.55 1008.56 1008.98 1008.38 1008.08 1007.80 1009.06 1010.65 1012.17 1014.38 1015.82 1016.31 1016.50 1016.02 1015.13 1014.77 1014.63 1015.02 1015.84 1016.45 1016.92 1017.75
1019.74 1016.77 1011.93 1011.81 1012.72 1013.33 1012.61 1011.51 1010.40 1009.20 1008.20 1007.64 1006.81 1006.49 1006.59 1007.19 1007.36 1006.93 1006.42 1005.61 1005.65 1006.30 1007.03 1007.95 1008.85 1009.48 1009.23 1009.55 1009.32 1010.04 1010.97 1011.89 1013.49 1015.14 1016.10 1016.73 1015.93 1014.81 1014.87 1014.53 1015.08 1015.86 1016.95 1018.90 1019.80
1020.24 1017.83 1014.10 1012.76 1012.81 1012.90 1012.60 1011.43 1010.14 1008.42 1007.63 1007.12 1006.87 1006.65 1007.07 1007.34 1007.52 1007.37 1006.82 1006.10 1006.09 1006.70 1007.13 1007.56 1009.45 1010.07 1010.16 1010.27 1010.27 1011.01 1011.39 1012.00 1012.82 1014.36 1014.89 1015.25 1014.69 1015.06 1015.11 1015.02 1015.52 1015.45 1015.92 1017.01 1019.10
1020.22 1018.19 1015.99 1014.54 1013.78 1013.31 1012.82 1011.48 1010.26 1009.09 1007.55 1006.73 1006.91 1007.07 1007.51 1008.00 1008.07 1007.88 1007.39 1007.08 1007.05 1007.31 1007.91 1008.57 1010.24 1010.13 1010.57 1010.70 1010.64 1011.07 1011.40 1011.74 1012.41 1012.78 1013.84 1013.82 1014.06 1014.06 1014.59 1014.63 1014.84 1015.74 1015.82 1016.66 1017.61
1020.18 1018.72 1017.06 1015.89 1014.47 1013.64 1012.53 1011.30 1010.23 1009.38 1008.55 1007.76 1007.44 1007.25 1007.57 1008.39 1008.66 1008.61 1008.32 1008.45 1008.58 1008.48 1009.04 1009.81 1010.86 1011.25 1011.78 1011.25 1010.98 1010.99 1011.30 1011.32 1011.62 1012.08 1012.72 1013.24 1013.33 1013.02 1013.98 1014.53 1015.02 1015.85 1016.73 1017.86 1018.96
1019.59 1018.71 1018.16 1016.39 1014.96 1013.84 1012.74 1011.85 1010.67 1009.73 1008.61 1008.00 1007.71 1007.90 1008.59 1008.80 1008.59 1008.45 1008.65 1008.80 1009.14 1009.32 1010.17 1010.81 1011.66 1012.49 1012.70 1011.98 1011.49 1011.35 1010.75 1010.63 1011.00 1011.32 1011.94 1012.95 1012.69 1013.42 1014.31 1014.59 1014.73 1015.75 1016.70 1017.56 1018.68
Wind_Speed
21 21 19 18 18 18 19 18 16 14 13 11 9 9 9 10 13 2 7 13 8 9 3 3 2 5 4 3 4 4 3 1 4 0 5 7 5 7 3 6 3 5 8 15 13
21 20 20 20 19 18 18 19 17 15 13 11 9 8 7 8 3 8 14 12 11 11 4 3 3 4 3 4 2 4 3 5 8 6 12 7 1 10 6 8 6 13 11 15 17
21 20 20 20 21 19 18 18 18 16 13 11 8 7 6 4 4 9 6 15 9 8 3 3 2 2 4 2 3 2 6 5 13 10 17 18 15 5 13 6 20 23 20 16 13
21 22 21 21 21 20 19 18 18 16 14 11 8 7 3 1 4 4 4 14 10 6 2 0 3 2 4 5 3 2 8 6 13 6 11 20 17 9 6 10 17 19 19 15 13
21 22 22 21 21 20 19 18 18 16 14 11 7 6 2 1 11 4 6 8 6 4 4 2 1 1 3 4 3 7 10 8 11 9 4 6 8 14 10 16 16 16 14 13 8
21 21 21 21 22 21 21 19 17 15 12 9 6 3 1 4 6 8 9 5 6 5 4 5 5 7 6 5 4 6 8 10 6 3 1 10 6 7 10 18 16 16 13 10 14
23 23 23 23 22 22 23 22 18 15 12 7 5 4 2 15 4 8 9 6 4 5 4 6 5 3 0 8 2 5 6 6 3 2 2 11 5 10 18 18 18 15 11 11 14
23 24 24 24 24 23 24 23 21 14 7 4 5 3 9 6 4 4 3 6 7 7 6 8 4 0 2 3 9 6 5 4 6 4 1 7 5 7 16 18 16 13 9 15 14
24 25 25 26 26 25 25 25 20 8 4 7 3 3 11 7 6 11 9 8 8 6 7 5 3 1 7 4 6 6 2 1 8 5 5 5 6 19 10 16 13 12 9 17 14
24 25 26 27 27 25 28 21 6 1 3 4 4 3 6 5 4 8 9 12 5 4 4 2 6 3 5 5 4 4 4 6 5 7 1 3 8 12 14 16 17 14 13 18 18
25 26 27 28 28 25 15 4 4 3 1 9 6 6 9 2 4 5 9 6 2 3 4 4 3 6 10 7 8 3 3 7 8 9 9 14 8 9 13 11 15 16 13 17 19
25 27 28 30 31 28 1 3 6 6 8 11 15 14 19 2 6 8 8 8 4 4 1 5 7 11 7 7 6 6 9 11 10 6 8 6 10 9 8 11 16 18 16 17 14
23 25 27 31 36 3 4 5 8 4 3 8 11 8 9 9 9 11 11 6 5 5 5 7 10 3 6 11 6 6 5 4 8 3 3 5 5 2 5 5 8 13 20 15 19
22 23 25 33 5 7 7 10 13 3 4 10 6 9 5 7 6 10 9 8 4 10 6 7 13 11 8 10 9 3 4 3 6 7 1 3 4 5 4 8 8 15 9 14 15
22 22 21 18 6 5 8 14 13 6 2 4 5 4 8 10 2 7 6 5 8 7 7 10 5 5 4 8 7 7 0 2 2 4 3 6 6 9 2 8 8 9 17 18 18
23 22 22 5 2 12 10 14 4 5 8 5 7 7 7 8 6 3 6 3 7 6 4 9 5 4 6 4 2 1 5 9 6 4 5 6 6 7 5 4 6 8 8 6 14
24 26 16 4 7 1 7 4 6 3 6 3 3 8 8 8 13 7 7 5 7 5 5 6 11 5 3 5 3 8 8 4 5 6 6 7 3 8 8 2 6 10 15 16 20
25 29 7 8 7 5 4 6 4 7 6 7 6 4 10 8 10 8 8 8 4 5 3 4 9 5 3 7 10 5 9 8 7 4 5 6 3 2 5 9 10 13 17 19 18
26 4 5 7 11 4 6 3 8 6 3 8 13 6 4 4 6 9 10 11 10 11 11 6 8 1 8 4 10 5 3 7 7 3 4 4 5 3 8 17 11 11 17 16 19
5 5 6 4 11 5 5 6 6 4 6 4 3 4 4 4 5 1 9 9 12 14 7 8 4 10 9 4 2 9 6 2 4 3 3 4 1 2 12 14 8 8 7 14 15
2 5 6 8 6 5 4 7 6 8 5 4 6 4 4 4 2 4 6 2 7 14 11 6 6 11 2 2 3 4 3 7 6 5 7 2 3 1 1 4 4 8 9 10 13
3 2 5 3 4 2 4 5 5 12 6 8 10 2 3 3 3 3 5 4 3 3 8 5 7 5 8 4 8 5 4 6 7 2 2 4 6 5 3 8 15 10 6 9 12
3 5 6 5 3 3 5 6 7 14 12 6 3 3 2 3 2 2 2 5 4 4 5 5 2 3 7 6 5 7 1 5 8 4 4 6 7 5 5 8 10 16 16 13 13
2 4 6 3 1 6 1 6 6 6 12 9 3 2 3 3 3 3 4 3 2 4 4 8 3 7 8 5 3 0 2 4 7 4 4 6 5 5 2 3 7 14 19 19 14
1 5 3 3 3 5 3 5 7 5 4 1 2 5 4 1 4 2 3 5 4 4 4 6 4 3 3 1 2 4 5 5 4 6 7 9 7 6 10 10 9 11 17 19 18
1 2 6 4 4 3 4 3 10 8 4 7 1 4 3 6 4 2 1 4 2 4 4 4 2 3 2 0 4 2 5 8 9 5 4 1 6 4 7 4 7 14 13 13 13
3 4 3 5 4 1 2 5 9 5 6 2 6 4 9 4 4 5 2 4 3 4 2 4 4 4 2 3 4 4 4 6 5 4 7 7 11 6 5 8 10 13 15 16 16
Wind_Direction
1 358 353 352 349 345 342 342 340 337 329 319 314 310 307 312 304 151 242 223 189 212 163 296 226 275 56 263 194 134 66 358 281 176 211 149 141 154 237 161 202 189 137 158 161
358 355 351 350 347 343 339 337 336 334 328 320 309 306 311 329 286 247 234 223 235 168 202 234 291 13 315 266 338 103 78 244 195 18 52 331 197 188 166 173 119 114 112 143 154
355 352 349 347 345 340 336 332 332 329 327 320 304 298 307 329 314 248 220 196 171 175 180 184 198 139 229 62 255 180 203 238 277 173 150 210 206 210 140 164 152 149 149 155 158
351 349 346 343 340 336 333 329 329 326 324 318 296 280 302 207 255 286 6 162 166 178 209 185 53 196 220 213 180 228 252 225 270 242 160 198 186 167 171 174 157 151 156 158 162
346 344 342 339 335 332 329 325 324 321 317 313 285 268 234 318 251 224 121 133 147 177 199 164 359 161 261 261 354 187 259 253 235 237 222 122 163 158 172 152 151 152 165 171 144
342 340 339 337 332 329 326 323 320 312 312 305 272 255 172 265 243 163 151 152 214 179 193 147 221 213 263 261 165 290 289 260 219 309 129 112 110 95 165 154 152 164 183 136 139
339 338 337 335 331 328 324 321 317 306 301 287 222 239 225 237 314 151 155 201 210 188 201 211 225 243 307 329 237 290 313 349 1 323 106 119 68 149 163 160 165 175 177 146 136
338 336 335 333 331 327 322 318 314 306 277 233 194 223 247 250 185 160 211 273 255 242 208 257 228 17 73 285 359 339 42 41 282 339 338 96 200 168 168 165 170 168 158 148 156
337 334 333 331 329 327 320 316 305 282 197 157 173 178 266 298 172 220 167 225 227 266 249 258 58 84 6 63 1 359 223 257 299 218 199 125 205 186 182 169 168 177 160 162 165
336 334 332 329 327 326 319 306 281 222 200 199 253 356 270 258 193 172 190 219 203 266 345 348 48 32 14 72 223 267 10 319 268 295 235 222 226 154 184 170 176 186 172 176 175
335 334 331 329 325 324 335 13 18 25 240 206 199 250 290 327 357 195 186 209 193 98 179 270 97 232 245 205 225 238 242 256 258 255 192 210 186 217 178 186 183 191 187 183 188
334 333 333 329 323 323 190 357 248 235 292 230 242 239 259 289 304 244 116 161 152 212 265 359 247 229 235 262 252 266 266 272 285 262 158 177 216 216 154 202 192 194 200 194 188
332 334 334 329 319 337 268 243 308 360 290 275 217 213 229 151 221 232 142 162 167 210 239 199 246 313 218 266 264 251 227 236 228 320 24 109 337 209 234 210 213 210 204 199 190
330 333 337 335 18 330 294 314 342 322 29 274 215 240 194 170 285 208 162 147 213 193 220 236 259 246 260 250 185 244 202 234 46 47 315 35 262 317 298 306 198 233 226 217 203
327 330 334 328 286 314 277 331 324 55 342 234 183 181 160 150 200 220 158 107 182 205 125 245 281 302 288 233 172 213 124 53 66 86 71 346 83 270 340 311 291 265 227 214 208
323 323 331 329 245 244 319 306 43 52 255 297 155 162 118 174 247 49 138 117 186 208 209 240 273 224 235 308 218 132 74 36 45 63 24 257 132 275 258 261 327 343 341 132 101
318 315 313 258 235 21 331 32 59 172 318 256 182 148 175 168 221 193 173 176 174 173 282 308 279 268 214 249 355 75 60 3 0 8 223 296 25 241 303 343 117 83 68 74 90
316 310 251 207 233 276 11 57 154 236 272 305 335 218 178 163 209 185 168 206 252 121 128 195 310 202 231 188 196 176 151 153 201 189 248 319 274 266 343 24 55 90 99 97 90
321 312 268 247 201 124 79 111 209 223 328 342 324 153 211 196 176 177 185 195 200 178 182 168 260 263 298 248 172 191 148 188 131 47 72 239 300 324 13 33 12 102 107 110 113
317 326 265 248 144 98 84 225 232 237 348 14 279 45 75 21 39 203 187 198 211 191 159 217 252 263 274 50 5 136 166 79 19 134 236 279 250 354 2 14 10 45 29 112 109
21 340 259 152 104 60 171 234 280 272 291 244 318 350 24 55 16 269 223 308 209 200 180 171 139 269 41 42 204 8 33 56 111 107 170 180 273 265 265 300 18 156 126 122 115
346 305 289 104 87 171 194 219 250 268 271 280 226 245 143 49 349 323 16 25 337 104 141 172 151 216 221 27 88 80 136 112 110 294 86 137 261 260 155 59 62 49 93 107 92
334 270 298 104 165 255 284 270 244 268 271 270 213 154 72 83 344 276 252 265 131 98 154 196 68 75 355 6 15 104 139 110 110 97 178 133 255 203 244 111 110 99 90 64 54
353 321 309 59 166 161 252 266 251 285 252 214 157 104 55 1 182 269 322 332 72 111 130 90 107 141 186 185 163 20 173 179 123 118 211 217 238 217 242 194 155 132 128 122 105
177 253 247 308 324 332 204 282 304 321 340 291 131 154 140 185 345 315 315 0 16 131 61 93 135 104 126 330 101 168 230 187 191 199 153 241 211 214 187 197 173 152 140 145 145
230 34 341 290 273 281 192 261 229 273 258 313 299 219 116 111 151 47 336 49 6 339 28 9 167 117 99 234 337 244 191 214 225 210 242 174 272 192 172 145 161 155 145 141 142
307 330 112 278 317 20 254 342 313 333 299 230 246 118 95 137 186 173 147 142 128 108 58 65 100 70 301 356 12 3 222 249 199 199 174 184 224 145 186 197 178 163 172 151 137